Free aircraft booking by Goboko

Please sign in again to see renewals

Sign in

Goboko Update

Goboko is set to continue

The Goboko booking system is to continue under a new operator, a member of one of our longest-subscribed flying clubs

The new and previous operators of the site are working to ensure there will be no interruption to your booking service as the transition takes place. Of course, aircraft booking will continue to be free

Thank you for your continued commitment to Goboko

Info

Aviation weather

METAR KDAB 161553Z VRB05KT 10SM SCT032 31/24 A3013 RMK AO2 SLP201 T03060239

TAF KDAB 161121Z 1612/1712 00000KT P6SM FEW025 FM161700 11008KT P6SM SCT035 FM170000 VRB03KT P6SM FEW020

Aviation weather from ADDS. Re-check weather before flight.

-